• In Österreich
  • Länderverzeichnis
  • Für 7 Tage
  • Wassertemperatur
  • Satellitenkarten
  • Wetterkarte
  • News
  • Widgets
  • user-avatar
    Anmelden

    Stündliche Wetter Zabrody

    Heute, 23 Oktober, Dienstag

    Zeit Temperatur Niederschläge Wind Luftdruck Luftfeuchtigkeit
    00:00 +4°C° 0.5 mm 4 m/S 735 mmHg 87%
    01:00 +4°C° 0.5 mm 4 m/S 734 mmHg 89%
    02:00 +4°C° 0.5 mm 4 m/S 734 mmHg 90%
    03:00 +4°C° 0.5 mm 3 m/S 734 mmHg 91%
    04:00 +4°C° 0.5 mm 3 m/S 733 mmHg 91%
    05:00 +4°C° 0.5 mm 3 m/S 733 mmHg 92%
    06:00 +4°C° 0.1 mm 3 m/S 733 mmHg 92%
    07:00 +4°C° 0.1 mm 3 m/S 732 mmHg 91%
    08:00 +4°C° 0.1 mm 2 m/S 732 mmHg 91%
    09:00 +5°C° 0 mm 2 m/S 732 mmHg 87%
    10:00 +5°C° 0 mm 2 m/S 732 mmHg 82%
    11:00 +6°C° 0 mm 2 m/S 731 mmHg 78%
    12:00 +6°C° 0 mm 2 m/S 730 mmHg 74%
    13:00 +6°C° 0 mm 2 m/S 730 mmHg 71%
    14:00 +7°C° 0 mm 2 m/S 729 mmHg 67%
    15:00 +6°C° 0 mm 2 m/S 728 mmHg 71%
    16:00 +5°C° 0 mm 2 m/S 727 mmHg 76%
    17:00 +5°C° 0 mm 2 m/S 727 mmHg 80%
    18:00 +4°C° 0 mm 2 m/S 726 mmHg 80%
    19:00 +3°C° 0 mm 3 m/S 725 mmHg 81%
    20:00 +3°C° 0 mm 3 m/S 724 mmHg 81%
    21:00 +3°C° 0.1 mm 3 m/S 723 mmHg 80%
    22:00 +3°C° 0.1 mm 3 m/S 722 mmHg 80%
    23:00 +3°C° 0.1 mm 4 m/S 721 mmHg 79%

    Morgen, 24 Oktober, Mittwoch

    Zeit Temperatur Niederschläge Wind Luftdruck Luftfeuchtigkeit
    00:00 +3°C° 0.2 mm 4 m/S 720 mmHg 80%
    01:00 +3°C° 0.2 mm 4 m/S 719 mmHg 81%
    02:00 +2°C° 0.2 mm 5 m/S 718 mmHg 81%
    03:00 +2°C° 0.4 mm 5 m/S 717 mmHg 82%
    04:00 +2°C° 0.4 mm 5 m/S 716 mmHg 83%
    05:00 +2°C° 0.4 mm 5 m/S 715 mmHg 84%
    06:00 +2°C° 0.3 mm 5 m/S 715 mmHg 85%
    07:00 +3°C° 0.3 mm 4 m/S 714 mmHg 86%
    08:00 +3°C° 0.3 mm 4 m/S 714 mmHg 86%
    09:00 +3°C° 0.3 mm 4 m/S 714 mmHg 86%
    10:00 +4°C° 0.3 mm 3 m/S 714 mmHg 86%
    11:00 +4°C° 0.3 mm 3 m/S 714 mmHg 85%
    12:00 +4°C° 0.7 mm 3 m/S 714 mmHg 87%
    13:00 +5°C° 0.7 mm 2 m/S 714 mmHg 88%
    14:00 +5°C° 0.7 mm 2 m/S 714 mmHg 89%
    15:00 +5°C° 0.4 mm 2 m/S 714 mmHg 90%
    16:00 +5°C° 0.4 mm 1 m/S 715 mmHg 92%
    17:00 +5°C° 0.4 mm 1 m/S 715 mmHg 94%
    18:00 +5°C° 0.3 mm 1 m/S 715 mmHg 94%
    19:00 +4°C° 0.3 mm 2 m/S 716 mmHg 94%
    20:00 +4°C° 0.3 mm 2 m/S 716 mmHg 94%
    21:00 +4°C° 0.2 mm 2 m/S 717 mmHg 94%
    22:00 +4°C° 0.2 mm 2 m/S 717 mmHg 94%
    23:00 +4°C° 0.2 mm 2 m/S 717 mmHg 93%

    übermorgen, 25 Oktober, Donnerstag

    Zeit Temperatur Niederschläge Wind Luftdruck Luftfeuchtigkeit
    00:00 +3°C° 0.2 mm 3 m/S 717 mmHg 93%
    01:00 +3°C° 0.2 mm 3 m/S 718 mmHg 92%
    02:00 +3°C° 0.2 mm 3 m/S 718 mmHg 92%
    03:00 +3°C° 0.2 mm 4 m/S 718 mmHg 90%
    04:00 +3°C° 0.2 mm 4 m/S 718 mmHg 89%
    05:00 +3°C° 0.2 mm 4 m/S 718 mmHg 88%
    06:00 +1°C° 0.1 mm 5 m/S 718 mmHg 86%
    07:00 +1°C° 0.1 mm 5 m/S 718 mmHg 84%
    08:00 +1°C° 0.1 mm 5 m/S 718 mmHg 82%
    09:00 +1°C° 0 mm 5 m/S 718 mmHg 80%
    10:00 +1°C° 0 mm 6 m/S 718 mmHg 78%
    11:00 +1°C° 0 mm 6 m/S 718 mmHg 76%
    12:00 +1°C° 0 mm 6 m/S 718 mmHg 75%
    13:00 +1°C° 0 mm 6 m/S 718 mmHg 74%
    14:00 +1°C° 0 mm 6 m/S 718 mmHg 73%
    15:00 +1°C° 0 mm 6 m/S 718 mmHg 74%
    16:00 +1°C° 0 mm 6 m/S 718 mmHg 75%
    17:00 -1°C° 0 mm 6 m/S 718 mmHg 76%
    18:00 -1°C° 0 mm 6 m/S 719 mmHg 76%
    19:00 -1°C° 0 mm 6 m/S 719 mmHg 76%
    20:00 0°C° 0 mm 5 m/S 719 mmHg 75%
    21:00 0°C° 0 mm 5 m/S 720 mmHg 78%
    22:00 0°C° 0 mm 5 m/S 720 mmHg 81%
    23:00 -1°C° 0 mm 5 m/S 720 mmHg 84%

    26 Oktober, Freitag

    Zeit Temperatur Niederschläge Wind Luftdruck Luftfeuchtigkeit
    00:00 -1°C° 0 mm 5 m/S 721 mmHg 84%
    01:00 -1°C° 0 mm 5 m/S 722 mmHg 84%
    02:00 -1°C° 0 mm 4 m/S 722 mmHg 84%
    03:00 -1°C° 0 mm 4 m/S 723 mmHg 85%
    04:00 -1°C° 0 mm 4 m/S 723 mmHg 85%
    05:00 -1°C° 0 mm 4 m/S 724 mmHg 86%
    06:00 -1°C° 0 mm 4 m/S 724 mmHg 86%
    07:00 -1°C° 0 mm 4 m/S 725 mmHg 87%
    08:00 -1°C° 0 mm 4 m/S 725 mmHg 87%
    09:00 0°C° 0 mm 4 m/S 725 mmHg 85%
    10:00 0°C° 0 mm 4 m/S 726 mmHg 83%
    11:00 +1°C° 0 mm 4 m/S 726 mmHg 81%
    12:00 +1°C° 0.1 mm 4 m/S 726 mmHg 81%
    13:00 +1°C° 0.1 mm 4 m/S 727 mmHg 80%
    14:00 +1°C° 0.1 mm 4 m/S 727 mmHg 79%
    15:00 +1°C° 0 mm 4 m/S 727 mmHg 80%
    16:00 +1°C° 0 mm 4 m/S 728 mmHg 81%
    17:00 +1°C° 0 mm 4 m/S 728 mmHg 82%
    18:00 +1°C° 0.1 mm 3 m/S 729 mmHg 83%
    19:00 +1°C° 0.1 mm 3 m/S 729 mmHg 85%
    20:00 +1°C° 0.1 mm 3 m/S 729 mmHg 87%
    21:00 0°C° 0 mm 3 m/S 730 mmHg 89%
    22:00 0°C° 0 mm 3 m/S 730 mmHg 91%
    23:00 0°C° 0 mm 3 m/S 731 mmHg 93%

    27 Oktober, Samstag

    Zeit Temperatur Niederschläge Wind Luftdruck Luftfeuchtigkeit
    00:00 -1°C° 0 mm 3 m/S 731 mmHg 94%
    01:00 -1°C° 0 mm 3 m/S 731 mmHg 94%
    02:00 -1°C° 0 mm 3 m/S 732 mmHg 95%
    03:00 -1°C° 0 mm 2 m/S 732 mmHg 96%
    04:00 -2°C° 0 mm 2 m/S 732 mmHg 96%
    05:00 -2°C° 0 mm 2 m/S 733 mmHg 96%
    06:00 -1°C° 0 mm 2 m/S 733 mmHg 95%
    07:00 -1°C° 0 mm 2 m/S 733 mmHg 94%
    08:00 0°C° 0 mm 3 m/S 733 mmHg 92%
    09:00 +1°C° 0 mm 3 m/S 733 mmHg 88%
    10:00 +1°C° 0 mm 4 m/S 733 mmHg 83%
    11:00 +3°C° 0 mm 4 m/S 733 mmHg 78%
    12:00 +4°C° 0 mm 4 m/S 732 mmHg 79%
    13:00 +3°C° 0 mm 5 m/S 732 mmHg 79%
    14:00 +3°C° 0 mm 5 m/S 731 mmHg 80%
    15:00 +3°C° 0.2 mm 5 m/S 731 mmHg 82%
    16:00 +3°C° 0.2 mm 5 m/S 731 mmHg 84%
    17:00 +3°C° 0.2 mm 6 m/S 730 mmHg 87%
    18:00 +4°C° 0.1 mm 6 m/S 730 mmHg 86%
    19:00 +5°C° 0.1 mm 5 m/S 730 mmHg 85%
    20:00 +5°C° 0.1 mm 5 m/S 730 mmHg 84%
    21:00 +5°C° 0.1 mm 5 m/S 730 mmHg 85%
    22:00 +5°C° 0.1 mm 4 m/S 730 mmHg 86%
    23:00 +5°C° 0.1 mm 4 m/S 730 mmHg 86%

    28 Oktober, Sonntag

    Zeit Temperatur Niederschläge Wind Luftdruck Luftfeuchtigkeit
    00:00 +4°C° 0.1 mm 3 m/S 730 mmHg 88%
    01:00 +4°C° 0.1 mm 3 m/S 730 mmHg 90%
    02:00 +4°C° 0.1 mm 3 m/S 730 mmHg 92%
    03:00 +5°C° 0.1 mm 2 m/S 730 mmHg 93%
    04:00 +5°C° 0.1 mm 2 m/S 730 mmHg 94%
    05:00 +4°C° 0.1 mm 2 m/S 730 mmHg 96%
    06:00 +5°C° 0.4 mm 2 m/S 730 mmHg 96%
    07:00 +6°C° 0.4 mm 1 m/S 730 mmHg 96%
    08:00 +6°C° 0.4 mm 1 m/S 730 mmHg 96%
    09:00 +6°C° 0.6 mm 1 m/S 730 mmHg 96%
    10:00 +6°C° 0.6 mm 1 m/S 730 mmHg 96%
    11:00 +7°C° 0.6 mm 1 m/S 730 mmHg 96%
    12:00 +7°C° 1.4 mm 1 m/S 730 mmHg 96%
    13:00 +7°C° 1.4 mm 1 m/S 729 mmHg 97%
    14:00 +6°C° 1.4 mm 2 m/S 729 mmHg 98%
    15:00 +6°C° 2 mm 2 m/S 728 mmHg 98%
    16:00 +6°C° 2 mm 2 m/S 728 mmHg 97%
    17:00 +6°C° 2 mm 2 m/S 727 mmHg 97%
    18:00 +7°C° 0.6 mm 2 m/S 727 mmHg 96%
    19:00 +8°C° 0.6 mm 3 m/S 727 mmHg 96%
    20:00 +8°C° 0.6 mm 3 m/S 726 mmHg 95%
    21:00 +8°C° 0.2 mm 4 m/S 727 mmHg 93%
    22:00 +8°C° 0.2 mm 5 m/S 727 mmHg 91%
    23:00 +9°C° 0.2 mm 5 m/S 727 mmHg 89%

    29 Oktober, Montag

    Zeit Temperatur Niederschläge Wind Luftdruck Luftfeuchtigkeit
    00:00 +8°C° 0.1 mm 6 m/S 728 mmHg 86%
    01:00 +5°C° 0.1 mm 6 m/S 729 mmHg 84%
    02:00 +4°C° 0.1 mm 7 m/S 729 mmHg 81%
    03:00 +3°C° 0 mm 6 m/S 731 mmHg 81%
    04:00 +3°C° 0 mm 6 m/S 732 mmHg 81%
    05:00 +2°C° 0 mm 5 m/S 733 mmHg 81%
    06:00 +2°C° 0 mm 5 m/S 734 mmHg 81%
    07:00 +3°C° 0 mm 5 m/S 735 mmHg 82%
    08:00 +3°C° 0 mm 5 m/S 736 mmHg 82%
    09:00 +3°C° 0 mm 5 m/S 737 mmHg 80%
    10:00 +3°C° 0 mm 5 m/S 737 mmHg 78%
    11:00 +4°C° 0 mm 4 m/S 738 mmHg 76%
    12:00 +4°C° 0 mm 4 m/S 739 mmHg 76%
    13:00 +4°C° 0 mm 4 m/S 739 mmHg 77%
    14:00 +4°C° 0 mm 4 m/S 740 mmHg 78%
    15:00 +4°C° 0 mm 3 m/S 740 mmHg 80%
    16:00 +3°C° 0 mm 3 m/S 741 mmHg 83%
    17:00 +4°C° 0 mm 2 m/S 741 mmHg 86%
    18:00 +3°C° 0 mm 2 m/S 742 mmHg 87%
    19:00 +3°C° 0 mm 2 m/S 742 mmHg 88%
    20:00 +3°C° 0 mm 2 m/S 742 mmHg 90%
    21:00 +3°C° 0 mm 1 m/S 743 mmHg 90%
    22:00 +3°C° 0 mm 1 m/S 743 mmHg 89%
    23:00 +3°C° 0 mm 1 m/S 743 mmHg 89%
    Mehr zeigen